[[{"header":{"parameterUnit":"m.s-1","parameterCategory":1,"la1":30.2991,"la2":30.254,"lo1":-89.0895,"lo2":-89.0444,"dy":0.0017,"dx":0.0017,"nx":28,"ny":28,"refTime":"2025-01-09T09:00:00:Z","depth":0,"parameterNumber":2,"parameterNumberName":"U-component_of_WINDS"},"data":[0,0,0,0,0,0,0,0,0,0,0,0,0,0,0,0,0,0,0,0,0,0,0,0,0,0,0,0,0,0,0,0,0,0,0,0,0,0,0,0,0,0,0,0,0,0,0,0,0,0,0,0,0,0,0,0,0,0,-5.6419,-5.6419,0,-5.646,-5.6461,-5.6461,-5.6321,-5.6317,-5.6313,-5.6309,-5.6351,-5.6356,-5.6361,0,0,0,0,0,0,0,0,0,0,0,0,0,-5.6216,-5.622,-5.6418,-5.6419,-5.642,-5.646,-5.6461,-5.6461,-5.6322,-5.6317,-5.6312,-5.6307,-5.6349,-5.6355,-5.6361,0,0,0,0,0,0,0,0,0,0,0,0,0,-5.6286,-5.6222,-5.6418,-5.6355,-5.635,-5.646,-5.6461,-5.6461,-5.6323,-5.6317,-5.6311,-5.6305,-5.6347,-5.6355,-5.6362,-5.6535,0,0,-5.6385,-5.6389,0,0,0,0,0,0,0,0,-5.6282,-5.6293,-5.6364,-5.636,-5.6354,-5.6379,-5.6404,-5.6486,-5.6325,-5.6333,-5.6309,-5.6302,-5.6365,-5.6371,-5.6393,-5.6537,-5.6539,-5.6386,-5.6391,-5.6394,-5.6396,0,0,0,0,0,0,0,-5.6277,-5.6291,-5.6435,-5.6365,-5.6359,-5.6324,-5.6327,-5.6419,-5.6384,-5.6332,-5.6322,-5.6329,-5.6361,-5.6386,-5.6393,-5.654,-5.6386,-5.6392,-5.6397,-5.64,-5.6825,-5.6831,0,0,0,0,0,0,-5.6281,-5.6287,-5.6433,-5.6436,-5.6302,-5.6332,-5.6336,-5.6377,-5.6383,-5.6378,-5.6334,-5.6322,-5.6376,-5.6384,-5.6394,-5.6594,-5.6394,-5.6401,-5.6405,-5.6818,-5.6826,-5.6834,0,0,0,0,0,0,-5.6277,-5.6295,-5.6432,-5.6359,-5.6374,-5.6343,-5.6391,-5.6382,-5.6406,-5.6385,-5.6377,-5.6366,-5.6371,-5.6383,-5.65,-5.6594,-5.6404,-5.6411,-5.681,-5.6821,-5.683,-5.6998,0,0,0,0,0,0,-5.6272,-5.6295,-5.6361,-5.6362,-5.6378,-5.6539,-5.6396,-5.6387,-5.6419,-5.6404,-5.6412,-5.6407,-5.6367,-5.649,-5.6508,-5.6601,-5.6417,-5.6802,-5.6815,-5.6827,-5.6984,-5.7013,-5.7038,0,0,0,0,0,-5.6265,-5.6407,-5.6365,-5.6383,-5.646,-5.6545,-5.6554,-5.6505,-5.6427,-5.6493,-5.6479,-5.6407,-5.6581,-5.6503,-5.6522,-5.6619,-5.6796,-5.6811,-5.6826,-5.6972,-5.7007,-5.7037,0,0,0,0,0,0,-5.6418,-5.6406,-5.6359,-5.6506,-5.6528,-5.6521,-5.6602,-5.6544,-5.6588,-5.6572,-5.6509,-5.6513,-5.6641,-5.6641,-5.6555,-5.6785,-5.6675,-5.6695,-5.6779,-5.6813,-5.6839,-5.6835,-5.6423,0,0,0,0,0,-5.6469,-5.6539,-5.6525,-5.6655,-5.6669,-5.6634,-5.6669,-5.663,-5.6649,-5.6658,-5.6652,-5.6674,-5.6732,-5.6773,-5.6826,-5.6984,-5.6983,-5.706,-5.7087,-5.7109,-5.7126,-5.7206,-5.724,-5.6884,-5.6884,-5.6883,0,0,-5.6575,-5.6577,-5.6625,-5.6686,-5.6698,-5.6771,-5.6643,-5.6726,-5.6779,-5.667,-5.678,-5.6777,-5.6797,-5.6935,-5.6995,-5.6939,-5.7224,-5.7128,-5.7146,-5.7151,-5.7225,-5.7259,-5.7289,-5.6894,-5.6892,-5.689,0,0,-5.6804,-5.6814,-5.6922,-5.6937,-5.6956,-5.6932,-5.6959,-5.6961,-5.6955,-5.7064,-5.6983,-5.7045,-5.7149,-5.7165,-5.7187,-5.7422,-5.7356,-5.7441,-5.7579,-5.7659,-5.7687,-5.7711,-5.7792,-5.7822,-5.7459,-5.7459,-5.7459,0,-5.6933,-5.704,-5.6986,-5.7074,-5.7102,-5.7007,-5.7115,-5.7132,-5.7168,-5.7189,-5.7127,-5.7253,-5.726,-5.7399,-5.7456,-5.7478,-5.7504,-5.7439,-5.7687,-5.7711,-5.7733,-5.781,-5.7841,-5.7469,-5.7468,-5.7467,-5.7466,0,-5.7196,-5.7271,-5.7356,-5.7393,-5.7431,-5.7529,-5.7489,-5.7534,-5.7491,-5.7473,-5.7584,-5.7589,-5.764,-5.7671,-5.763,-5.7804,-5.7768,-5.7698,-5.7585,-5.7778,-5.7849,-5.7878,-5.7483,-5.748,-5.7477,-5.7474,0,0,-5.7522,-5.7527,-5.7559,-5.7573,-5.7587,-5.7644,-5.7737,-5.7787,-5.7826,-5.7854,-5.7929,-5.8019,-5.7953,-5.7978,-5.7938,-5.8008,-5.819,-5.7928,-5.7928,-5.7975,-5.8378,-5.843,-5.8465,-5.8148,-5.8153,-5.8157,-5.8376,0,-5.7745,-5.7904,-5.7857,-5.8016,-5.8084,-5.7994,-5.8075,-5.8092,-5.8078,-5.8132,-5.8116,-5.8179,-5.8089,-5.8103,-5.8169,-5.8154,-5.827,-5.8138,-5.8215,-5.8218,-5.821,-5.8502,-5.8557,-5.8762,-5.8403,-5.8408,-5.8411,0,-5.8027,-5.8065,-5.8231,-5.8231,-5.8258,-5.8331,-5.8372,-5.8426,-5.8443,-5.8427,-5.8455,-5.8401,-5.849,-5.8379,-5.8501,-5.8412,-5.8441,-5.8439,-5.8445,-5.8449,-5.8325,-5.8511,-5.8827,-5.8857,-5.8455,-5.8451,-5.8448,0,-5.8245,-5.8338,-5.8448,-5.8464,-5.8468,-5.8521,-5.8526,-5.8536,-5.8569,-5.8604,-5.8624,-5.8671,-5.8696,-5.8733,-5.8691,-5.8615,-5.8818,-5.8704,-5.8806,-5.8807,-5.8851,-5.8849,-5.9175,-5.8875,-5.8874,-5.8874,-5.8873,0,-5.8497,-5.8601,-5.8546,-5.8614,-5.8727,-5.8672,-5.8786,-5.878,-5.879,-5.8854,-5.878,-5.8842,-5.8784,-5.8841,-5.8809,-5.8913,-5.8926,-5.8914,-5.8904,-5.892,-5.8921,-5.8936,-5.892,-5.8882,-5.888,-5.8879,-5.8877,0,-5.8759,-5.8726,-5.884,-5.8835,-5.8836,-5.8919,-5.8914,-5.8976,-5.8956,-5.9038,-5.9054,-5.9023,-5.9085,-5.9048,-5.9112,-5.909,-5.9225,-5.9197,-5.9219,-5.9211,-5.9314,-5.9304,-5.9659,-5.9701,-5.9377,-5.938,-5.9383,0,-5.8921,-5.8999,-5.9001,-5.9039,-5.9048,-5.911,-5.9142,-5.9091,-5.9127,-5.9151,-5.921,-5.9265,-5.9307,-5.941,-5.9393,-5.9441,-5.9411,-5.9532,-5.9418,-5.943,-5.941,-5.9404,-5.9411,-5.9555,-5.9559,-5.9562,-5.9564,0,-5.9211,-5.9191,-5.924,-5.9284,-5.9325,-5.9357,-5.9383,-5.9418,-5.9366,-5.9411,-5.9473,-5.9506,-5.957,-5.9625,-5.9665,-5.9668,-5.9608,-5.9601,-5.9626,-5.9641,-5.965,-5.9644,-5.9279,-5.9592,-5.9589,-5.9587,-5.9586,-5.9585,-5.9426,-5.949,-5.9501,-5.9558,-5.9572,-5.9598,-5.9655,-5.9642,-5.9693,-5.9741,-5.9708,-5.9781,-5.9793,-5.9841,-5.9852,-5.9908,-5.9858,-5.9896,-5.9905,-5.9915,-5.9928,-5.9644,-5.9915,-5.9914,-5.9913,-5.9913,-5.9912,0,-5.971,-5.9712,-5.9765,-5.9803,-5.9848,-5.9787,-5.9812,-5.9853,-5.9919,-5.9936,-5.9978,-6.0049,-6.0102,-6.0089,-6.0136,-6.0183,-6.0156,-6.0197,-6.0192,-6.0193,-5.997,-5.9942,-6.0218,-6.0218,-6.0218,-6.0218,-6.0218,-6.0217,-5.9862,-5.9966,-5.9947,-6.0057,-6.0058,-6.0129,-6.0148,-6.0171,-6.0184,-6.0266,-6.031,-6.0301,-6.0305,-6.0352,-6.0398,-6.0392,-6.0412,-6.0463,-6.0447,-6.0239,-6.0209,-6.018,-6.0153,-6.0468,-6.0469,-6.0664,-6.0666,-6.0668]},{"header":{"parameterUnit":"m.s-1","parameterCategory":1,"la1":30.2991,"la2":30.254,"lo1":-89.0895,"lo2":-89.0444,"dy":0.0017,"dx":0.0017,"nx":28,"ny":28,"refTime":"2025-01-09T09:00:00:Z","depth":0,"parameterNumber":3,"parameterNumberName":"V-component_of_WINDS"},"data":[0,0,0,0,0,0,0,0,0,0,0,0,0,0,0,0,0,0,0,0,0,0,0,0,0,0,0,0,0,0,0,0,0,0,0,0,0,0,0,0,0,0,0,0,0,0,0,0,0,0,0,0,0,0,0,0,0,0,0.0683,0.0682,0,0.0552,0.055,0.0549,0.0471,0.047,0.047,0.047,0.0334,0.0331,0.0327,0,0,0,0,0,0,0,0,0,0,0,0,0,0.0867,0.0864,0.0683,0.0682,0.068,0.0552,0.055,0.0548,0.0471,0.047,0.047,0.047,0.0335,0.0331,0.0327,0,0,0,0,0,0,0,0,0,0,0,0,0,0.0767,0.0863,0.0683,0.0626,0.0619,0.0552,0.055,0.0548,0.0471,0.047,0.047,0.0469,0.0336,0.0331,0.0327,0.0306,0,0,0.0311,0.0309,0,0,0,0,0,0,0,0,0.0773,0.076,0.0636,0.063,0.0622,0.0527,0.0565,0.0467,0.0471,0.0527,0.047,0.0469,0.0398,0.0388,0.0365,0.03,0.0294,0.0311,0.0308,0.0306,0.0304,0,0,0,0,0,0,0,0.078,0.0765,0.0631,0.0634,0.0626,0.0607,0.0592,0.0546,0.0467,0.0522,0.0516,0.0502,0.0395,0.037,0.0361,0.0292,0.0311,0.0307,0.0304,0.0302,0.0205,0.0205,0,0,0,0,0,0,0.0796,0.0772,0.0635,0.0627,0.0698,0.0604,0.0587,0.0558,0.0468,0.0453,0.0502,0.0499,0.0378,0.0367,0.0356,0.0327,0.0306,0.0301,0.0298,0.0205,0.0205,0.0206,0,0,0,0,0,0,0.08,0.0784,0.0641,0.0698,0.0678,0.0601,0.0569,0.0556,0.0531,0.0453,0.0438,0.0492,0.0378,0.0363,0.0319,0.0321,0.0299,0.0294,0.0204,0.0205,0.0205,0.0269,0,0,0,0,0,0,0.0806,0.0786,0.0778,0.0698,0.0675,0.0607,0.0569,0.0554,0.0523,0.0517,0.0438,0.0425,0.0376,0.0327,0.0315,0.0314,0.0291,0.0204,0.0204,0.0205,0.0266,0.0271,0.0276,0,0,0,0,0,0.0813,0.08,0.0778,0.0762,0.0663,0.0607,0.0594,0.0538,0.0523,0.0514,0.0464,0.0427,0.0323,0.0324,0.0309,0.0306,0.0203,0.0204,0.0205,0.0264,0.027,0.0276,0,0,0,0,0,0,0.0881,0.0789,0.0763,0.0724,0.0674,0.0594,0.058,0.0546,0.0499,0.0495,0.0428,0.0411,0.0374,0.0336,0.0338,0.0283,0.0259,0.0257,0.0309,0.0314,0.0319,0.0329,0.0286,0,0,0,0,0,0.0892,0.0854,0.0775,0.0749,0.0725,0.0658,0.0631,0.0593,0.0538,0.0516,0.0463,0.0411,0.0366,0.0338,0.0293,0.026,0.0242,0.0251,0.0256,0.0261,0.026,0.0241,0.0244,0.0209,0.0209,0.0209,0,0,0.0913,0.0858,0.0838,0.0761,0.0718,0.0681,0.064,0.0602,0.0574,0.051,0.0466,0.0425,0.0363,0.0325,0.0306,0.0292,0.0266,0.0262,0.0266,0.0262,0.0242,0.0246,0.0249,0.0209,0.0209,0.0209,0,0,0.0933,0.0888,0.0861,0.0819,0.0755,0.071,0.0704,0.0629,0.06,0.0555,0.0507,0.0472,0.0397,0.0355,0.0323,0.033,0.0295,0.0317,0.0343,0.0325,0.0328,0.033,0.0333,0.0335,0.0317,0.0317,0.0317,0,0.0968,0.091,0.0852,0.0817,0.0785,0.0727,0.07,0.0662,0.0586,0.0565,0.0551,0.0456,0.041,0.0362,0.0364,0.0341,0.0332,0.0326,0.0332,0.0334,0.0335,0.0337,0.0339,0.032,0.032,0.0319,0.0319,0,0.0957,0.0917,0.0904,0.0833,0.0799,0.0769,0.0706,0.0679,0.0645,0.0602,0.0557,0.05,0.0443,0.0429,0.0394,0.0377,0.037,0.0345,0.032,0.0343,0.0344,0.0344,0.0324,0.0323,0.0322,0.0322,0,0,0.1015,0.0914,0.091,0.0877,0.0803,0.0771,0.0739,0.0683,0.0662,0.0612,0.0583,0.0522,0.0499,0.0463,0.0423,0.0408,0.0418,0.0384,0.0382,0.0393,0.0397,0.0416,0.0418,0.0395,0.0395,0.0395,0.0402,0,0.1025,0.0963,0.0911,0.0869,0.0832,0.0778,0.0749,0.0701,0.066,0.0623,0.0578,0.0536,0.0508,0.0487,0.0469,0.0421,0.0418,0.0419,0.0367,0.0366,0.0385,0.0418,0.0438,0.0448,0.0402,0.0402,0.0402,0,0.1027,0.0981,0.0935,0.0866,0.0849,0.0824,0.077,0.0736,0.068,0.0651,0.0613,0.0572,0.0535,0.0515,0.0464,0.0466,0.0442,0.0415,0.0414,0.0407,0.0386,0.0413,0.045,0.0452,0.0402,0.0402,0.0402,0,0.1075,0.1001,0.0965,0.0939,0.0857,0.0841,0.0806,0.0749,0.072,0.0673,0.0654,0.0603,0.0575,0.0537,0.0483,0.0473,0.0438,0.0412,0.0413,0.0415,0.0408,0.0409,0.0442,0.0393,0.0393,0.0393,0.0393,0,0.1091,0.1066,0.0985,0.0963,0.0934,0.0874,0.0846,0.0806,0.0757,0.0727,0.0676,0.0648,0.0579,0.0543,0.05,0.0465,0.0453,0.0429,0.0418,0.0433,0.0437,0.0416,0.0415,0.0393,0.0393,0.0393,0.0393,0,0.114,0.1085,0.1042,0.0968,0.0949,0.0931,0.0868,0.0844,0.0802,0.0763,0.0751,0.0684,0.0639,0.0582,0.0518,0.049,0.046,0.0443,0.0479,0.0473,0.0477,0.0478,0.0498,0.0498,0.0449,0.045,0.045,0,0.1154,0.1133,0.1058,0.1034,0.1001,0.0963,0.0934,0.0875,0.0846,0.0782,0.0766,0.0718,0.0676,0.0607,0.0552,0.0504,0.0486,0.0496,0.0478,0.0495,0.0486,0.0489,0.0487,0.0501,0.0502,0.0503,0.0503,0,0.1185,0.1159,0.1118,0.1069,0.1035,0.0993,0.0949,0.0932,0.0864,0.0834,0.0788,0.0756,0.0693,0.0645,0.059,0.0554,0.0518,0.051,0.0507,0.0523,0.0545,0.0534,0.0492,0.0509,0.0509,0.0508,0.0508,0.0508,0.1216,0.1196,0.1141,0.1098,0.1058,0.1019,0.0994,0.0948,0.0909,0.0853,0.0821,0.0777,0.0722,0.0645,0.0611,0.0575,0.0561,0.0558,0.0557,0.0557,0.0562,0.0551,0.0565,0.0564,0.0564,0.0564,0.0564,0,0.1245,0.1207,0.1169,0.1109,0.1075,0.1045,0.0995,0.0969,0.093,0.0883,0.0844,0.0792,0.0746,0.0689,0.0639,0.0622,0.0604,0.0611,0.0612,0.0604,0.0577,0.0584,0.0626,0.0626,0.0626,0.0626,0.0626,0.0626,0.1257,0.1221,0.1189,0.1134,0.1096,0.1053,0.1027,0.099,0.0953,0.0897,0.0859,0.0823,0.0772,0.0718,0.0675,0.066,0.0644,0.0656,0.0636,0.0611,0.0606,0.0601,0.0607,0.0653,0.0653,0.0666,0.0666,0.0666]}]]